Flag for Germany Weather past 2 weeks in Ahlen, North Rhine-Westphalia, Germany

Now
64 °F

Partly sunny.


Feels Like: 64 °F
Forecast: 46 / 63 °F
Wind: 9 mph from Southwest

Location: Dortmund / Wickede

Current Time: Jun 2, 2015 at 7:52:54 PM

Latest Report: Jun 2, 2015 at 7:20 PM


Visibility: N/A

Pressure: 29.89 "Hg

Humidity: 64%

Dew point: 52 °F

Location of AhlenLocation

Historic Weather in Ahlen — Graph

°F

Ahlen temperature yesterday

Maximum temperature yesterday: 63 °F (at 5:50 PM)
Minimum temperature yesterday: 48 °F (at 5:20 AM)
Average temperature yesterday: 56 °F

Past Weeks' High & Low Weather Summary

 TemperatureHumidityPressure
High68 °F (May 22, 3:50 PM)94% (May 25, 11:50 AM)30.33 "Hg (May 25, 11:50 AM)
Low41 °F (May 20, 5:20 AM)32% (May 21, 3:50 PM)29.62 "Hg (May 18, 7:20 PM)
Average56 °F62%30.00 "Hg
* Reported May 18 6:20 PM — Jun 2 6:20 PM, Ahlen, Weather by CustomWeather, © 2015

Note: Actual official high and low records may vary slightly from our data, if they occured in-between our weather recording intervals... More about our weather records

Advertising

Ahlen weather history for previous 24 hours

 ConditionsComfort  
Time TempWeatherWind HumidityBarometerVisibility
6:20 PM
Tue, Jun 2
64 °FPartly sunny.14 mph64%29.89 "HgN/A
5:20 PM64 °FPartly sunny.16 mph64%29.89 "HgN/A
4:50 PM64 °FPartly sunny.14 mph64%29.89 "HgN/A
4:20 PM64 °FPartly sunny.16 mph64%29.89 "HgN/A
3:50 PM64 °FPartly sunny.16 mph60%29.86 "HgN/A
3:20 PM64 °FScattered clouds.17 mph60%29.86 "HgN/A
2:50 PM66 °FScattered clouds.24 mph56%29.86 "HgN/A
2:20 PM64 °FScattered clouds.25 mph60%29.83 "HgN/A
1:50 PM66 °FSunny.18 mph52%29.83 "Hg10 mi
1:20 PM63 °FScattered clouds.18 mph59%29.86 "HgN/A
12:50 PM63 °FScattered clouds.23 mph56%29.86 "HgN/A
12:20 PM63 °FScattered clouds.24 mph59%29.86 "HgN/A
11:50 AM61 °FPassing clouds.21 mph59%29.86 "HgN/A
11:20 AM63 °FScattered clouds.22 mph52%29.86 "HgN/A
10:50 AM61 °FPassing clouds.18 mph52%29.83 "HgN/A
10:20 AM61 °FSunny.22 mph55%29.83 "Hg10 mi
9:50 AM59 °FSunny.22 mph59%29.83 "Hg10 mi
9:20 AM57 °FPassing clouds.21 mph63%29.83 "HgN/A
8:50 AM57 °FSunny.21 mph63%29.83 "Hg10 mi
8:20 AM55 °FSunny.18 mph67%29.83 "Hg10 mi
7:50 AM55 °FSunny.17 mph67%29.83 "Hg10 mi
7:20 AM54 °FSunny.15 mph72%29.86 "Hg10 mi
6:50 AM54 °FSunny.15 mph72%29.83 "Hg10 mi
6:20 AM52 °FClear.15 mph77%29.86 "HgN/A
5:20 AM52 °FClear.15 mph72%29.86 "Hg10 mi
10:50 PM
Mon, Jun 1
52 °FClear.6 mph67%29.95 "Hg10 mi
10:20 PM54 °FSunny.3 mph67%29.95 "Hg10 mi
9:50 PM55 °FSunny.6 mph63%29.95 "Hg10 mi
9:20 PM55 °FSunny.6 mph59%29.95 "Hg10 mi
8:50 PM54 °FSunny.5 mph63%29.95 "Hg10 mi
8:20 PM57 °FSunny.5 mph51%29.95 "Hg10 mi
7:50 PM61 °FPassing clouds.5 mph45%29.98 "HgN/A
7:20 PM61 °FPassing clouds.7 mph39%29.98 "HgN/A
Weather by CustomWeather, © 2015

See weather overviewHow to use our weather pages